This demonstration page uses our WeatherBlox Daily Observations layout. Learn more.

Left ArrowRight Arrow

44.8408, -93.29828

Hourly Observations for September 10, 2021

Temp ( °F °C ) Dew Point ( °F °C ) Humidity (%) Winds ( mph kmh ) Pressure ( in mb ) Visibility ( mi km ) Precip ( " mm )
12:53 am 00:53 Clear 63 17.2 53 11.7 70 70 SSE 5 7 30.02 1017 10 16 0.00 0.00
1:53 am 01:53 Clear 61 16.1 52 11.1 72 72 Calm 30.01 1016 10 16 0.00 0.00
2:53 am 02:53 Clear 60 15.6 51 10.6 72 72 SE 5 7 30.01 1016 10 16 0.00 0.00
3:53 am 03:53 Clear 59 15 52 11.1 78 78 ESE 5 7 30.00 1016 10 16 0.00 0.00
4:53 am 04:53 Clear 59 15 52 11.1 78 78 SE 3 6 30.00 1016 10 16 0.00 0.00
5:53 am 05:53 Clear 58 14.4 52 11.1 81 81 SE 5 7 30.00 1016 10 16 0.00 0.00
6:53 am 06:53 Mostly Sunny 57 13.9 51 10.6 81 81 ESE 6 9 30.00 1016 10 16 0.00 0.00
7:53 am 07:53 Mostly Sunny 59 15 52 11.1 78 78 SE 7 11 29.99 1016 10 16 0.00 0.00
8:53 am 08:53 Mostly Sunny 63 17.2 53 11.7 70 70 ESE 5 7 29.99 1016 10 16 0.00 0.00
9:53 am 09:53 Sunny 68 20 53 11.7 59 59 S 6 9 29.98 1015 10 16 0.00 0.00
10:53 am 10:53 Sunny 73 22.8 54 12.2 51 51 S 13 20 29.97 1015 10 16 0.00 0.00
11:53 am 11:53 Sunny 76 24.4 54 12.2 47 47 S 15 24 29.95 1014 10 16 0.00 0.00
12:53 pm 12:53 Sunny 78 25.6 55 12.8 45 45 S 12 19 29.93 1013 10 16 0.00 0.00
1:53 pm 13:53 Mostly Sunny 79 26.1 57 13.9 47 47 SSW 9 15 29.91 1013 10 16 0.00 0.00
2:53 pm 14:53 Mostly Sunny 80 26.7 57 13.9 45 45 S 10 17 29.90 1012 10 16 0.00 0.00
3:53 pm 15:53 Mostly Sunny 81 27.2 57 13.9 44 44 SSW 9 15 29.88 1012 10 16 0.00 0.00
4:53 pm 16:53 Mostly Sunny 81 27.2 57 13.9 44 44 SW 12 19 29.86 1011 10 16 0.00 0.00
5:53 pm 17:53 Mostly Sunny 81 27.2 58 14.4 45 45 SSW 10 17 29.85 1011 10 16 0.00 0.00
6:53 pm 18:53 Mostly Cloudy 80 26.7 58 14.4 47 47 SSW 6 9 29.85 1011 10 16 0.00 0.00
7:53 pm 19:53 Partly Cloudy 77 25 60 15.6 56 56 S 7 11 29.84 1011 10 16 0.00 0.00
8:53 pm 20:53 Partly Cloudy 76 24.4 60 15.6 58 58 S 8 13 29.85 1011 10 16 0.00 0.00
9:53 pm 21:53 Mostly Clear 75 23.9 60 15.6 60 60 S 8 13 29.84 1011 10 16 0.00 0.00
10:53 pm 22:53 Mostly Clear 73 22.8 60 15.6 64 64 S 7 11 29.84 1011 10 16 0.00 0.00
11:53 pm 23:53 Mostly Clear 73 22.8 60 15.6 64 64 SSW 6 9 29.83 1010 10 16 0.00 0.00

Powered by AerisWeather